[Date Prev][Date Next][Thread Prev][Thread Next] - [Date Index][Thread Index][Author Index]
2 Line ISS Keps 7-15
- Subject: [sarex] 2 Line ISS Keps 7-15
- From: "Dave Larsen PhD" <doc@xxxxxxxxxxx>
- Date: Thu, 14 Jul 2005 22:09:52 -0700
ISS
1 25544U 98067A 05196.15325675 .00020038 00000-0 15612-3 0 9097
2 25544 051.6443 117.6506 0003695 119.9746 018.2388 15.71704641380086
----
Via the sarex mailing list at AMSAT.ORG courtesy of AMSAT-NA.
To unsubscribe, send "unsubscribe sarex" to Majordomo@amsat.org
AMSAT Home